Regional Weather Roundup
Issued by NWS

Home | Current Version | Previous Version | Text Only | Print | Product List | Glossary On
Versions: 1 2 3 4 5 6 7 8 9 10 11 12 13 14 15 16 17 18 19 20 21 22 23 24 25 26 27 28 29 30 31 32 33 34 35 36 37 38 39 40 41 42 43 44 45 46 47 48 49 50
838
ASUS44 KLIX 260301
RWRLA
LOUISIANA WEATHER ROUNDUP
NATIONAL WEATHER SERVICE NEW ORLEANS LA
1000 PM CDT SAT OCT 25 2014

NOTE: "FAIR" INDICATES FEW OR NO CLOUDS BELOW 12,000 FEET WITH NO
      SIGNIFICANT WEATHER AND/OR OBSTRUCTIONS TO VISIBILITY.
      SKY/WX - SKY CONDITION AND SIGNIFICANT WEATHER.
      TMP - AIR TEMPERATURE.    DP   - DEWPOINT TEMPERATURE.
      RH  - RELATIVE HUMIDITY.  PRES - PRESSURE.
      HX  - HEAT INDEX.         WCI  - WIND CHILL INDEX.

*  THESE STATIONS ARE NOT NWS OR FAA STATIONS AND ARE NOT UNDER
   NWS QUALITY CONTROL.

LAZ040-048-061>063-065-066-069-260400-
SOUTHEAST LOUISIANA

CITY           SKY/WX    TMP DP  RH WIND       PRES   REMARKS
N.O. AUDUBON     N/A     64  62  92 MISG        N/A
N.O. INTL ARPT CLEAR     65  55  70 W6        30.09S
N.O. LAKEFRONT CLEAR     73  67  81 NW3       30.10R
N.O. DOWNTOWN* FAIR      73  54  49 CALM      30.10R
SLIDELL        CLEAR     60  56  86 CALM      30.08S
BATON ROUGE    CLEAR     59  55  87 CALM      30.10S
BOOTHVILLE     CLEAR     66  60  81 CALM      30.10R
BELLE CHASSE   CLEAR     60  55  83 CALM      30.09R
BOGALUSA*        N/A     61  57  87 CALM      30.10S
NEW ROADS*     FAIR      58  55  90 CALM      30.10S
GONZALES*      FAIR      58  58 100 CALM      30.10S
HAMMOND*       NOT AVBL
HOUMA*         CLEAR     60  57  90 CALM      30.10S
PORT FOURCHON* CLEAR     70  63  78 CALM      30.13S

$$

LAZ041-044-053-054-260400-
SOUTHWEST LOUISIANA

CITY           SKY/WX    TMP DP  RH WIND       PRES   REMARKS
LAKE CHARLES   CLEAR     60  57  89 CALM      30.11S
LAFAYETTE      CLEAR     61  58  90 CALM      30.11R
PATTERSON      CLEAR     59  57  94 CALM      30.13S
SALT POINT       N/A     67  63  87 CALM      30.10S
NEW IBERIA     CLEAR     60  56  86 W3        30.12R
CHENAULT AIRPK CLEAR     61  56  83 CALM      30.12S

$$

LAZ027-028-260400-
CENTRAL LOUISIANA

CITY           SKY/WX    TMP DP  RH WIND       PRES   REMARKS
FORT POLK      CLEAR     62  56  82 S1        30.10S
ALEXANDRIA INT CLEAR     61  58  90 CALM      30.08S
ALEXANDRIA     CLEAR     56  56 100 CALM      30.10S

$$

LAZ001-002-260400-
NORTHWEST LOUISIANA

CITY           SKY/WX    TMP DP  RH WIND       PRES   REMARKS
SHREVEPORT     CLEAR     69  64  84 CALM      30.08R
BARKSDALE AFB  CLEAR     66  63  91 SE3       30.08R
DTN SHREVEPORT CLEAR     68  63  84 CALM      30.07S

$$

LAZ014-016-260400-
NORTHEAST LOUISIANA

CITY           SKY/WX    TMP DP  RH WIND       PRES   REMARKS
MONROE         CLEAR     62  59  90 CALM      30.09S FOG
TALLULAH       CLEAR     59  57  93 CALM      30.08S

$$




USA.gov is the U.S. government's official web portal to all federal, state and local government web resources and services.